Погода в Гяндже

Погода в Гяндже : погода сейчас, прогноз погоды и архив. Всё, что Вы хотите узнать о погоде в Гяндже!

Поиск расширенной информации на нашем сайте:

Полезная информация: Карточки 16906 сайт автокранов.

Другие новости

Новости СМИ2

Главная страница сайта

Новости сайта

02.10.2013

Напоминаем, что на нашем новом сайте вы можете получить высокодетализированные прогнозы погоды по пунктам России, СНГ и мира (включающие важные для авиации метеовеличины, такие как направление и скорость ветра, видимость, явления погоды, количество и форма облачности, нижняя и верхняя граница облачности), а также ознакомиться с разнообразными материалами по авиационной метеорологии и подборкой полезных ссылок на эту тему.

Сайт Метеоцентр.Азия посвящён разработке технологий оптимизации авиаметеорологического обслуживания, включая проектирование и перспективное создание нескольких автоматизированных авиаметеорологических систем:
- система выпуска высокодетальных прогностических карт явлений погоды для нижнего воздушного пространства по России и ближнему зарубежью;
- система верификации прогнозов TAF (выпускаемых синоптиками официальных АМСГ РФ и ближнего зарубежья) и AUTOTAF (выпускаемых сайтом Метеоцентр.Азия) - выявление ошибок, онлайн-сопоставление с фактической погодой METAR, автоматическое внесение коррективов в прогнозы при резком отклонении фактической погоды от прогноза, подсчёт оправдываемости прогнозов по элементам и в целом;
- система обработки, анализа и отображения авиаметеорологической информации для применения провайдерами метеорологической информации.

Рекомендуем: Высказывания Мастеров восточных единоборств.

Погода в Гяндже - сегодня

Время (UTC), дата Ветер
(°,м/с) 
Видим.   Явления Облачность Т
(°С)
Тd
(°С)
f(%) Тe
(°С)
Pmin
(гПа)
dP
(гПа)
Po
(мм)
O2
(г/м3)
Тmin Tmax R s Состояние
почвы
21 24.03.17 160 (Ю) 10 км    3/3 1000 м 
[Cu med, cong]
+4 +2.2 88 +5  1026.2  -0.1  741  294           
00 25.03.17 290 (З) 10 км    8/8 1000 м 
[Sc]
+4.3 +2.3 87 +5  1026  -0.2  740  293           
03 25.03.17 160 (Ю) 10 км    10/10 1000 м 
[Sc]
+4.4 +2.4 87 +5  1025.2  -0.8  740  293           
06 25.03.17 тихо ()   4000 м    10/10 1000 м 
[Frnb]
+5.4 +2.7 83 +5  1024.8  -0.3  740  292           
09 25.03.17 050 (СВ) 10 км    9/9 1000 м 
[Sc]
+7.8 +3 72 +9  1023.9  -0.9  739  289           
12 25.03.17 320 (СЗ) 20000 м    5/5 1000 м 
[Cu med, cong]
+11.1 +2.5 55 +12  1020.7  -3.2  736  285           
15 25.03.17 тихо ()   20000 м    ясно 
+11 +2.7 57 +11  1018  -2.7  735  284           
18 25.03.17 тихо ()   10 км    ясно 
+6.8 +1.9 71 +7  1018.1  0.1  735  289    +12.3       
21 25.03.17 тихо ()   10 км    ясно 
+4.7 +1.4 79 +5  1018.5  0.4  736  291           
00 26.03.17 290 (З) 10 км    ясно 
+4 +0.9 80 +5  1018.9  0.4  736  292           
03 26.03.17 250 (З) 20000 м    6/0 средняя 
[As trans]
+3.9 +0.2 77 +5  1018.5  -0.4  735  292           
06 26.03.17 250 (З) 20000 м    ясно 
+9.4 +1.7 59 +10  1018.2  -0.3  735  286           
09 26.03.17 070 (В) 10 км    5/0 верхняя 
[Ci]
+13.9 +2.3 45 +13  1018.8  0.6  737  282           
12 26.03.17 тихо ()   20000 м    3/3 1000 м 
[Cu med, cong]
+17.4 +2.1 36 +17  1014.2  -4.6  732  277           
15 26.03.17 110 (В) 20000 м    3/3 1000 м 
[Cu med, cong]
+16.4 +1.9 38 +18  1012.5  -1.7  732  278           
18 26.03.17 тихо ()   20000 м    ясно 
+11.9 +2.7 53 +12  1013.6  1.1  733  283    +18.1       
21 26.03.17 140 (ЮВ) 20000 м    ясно 
+7.8 +3.4 74 +9  1014.8  1.2  733  287           
00 27.03.17 270 (З) 20000 м    ясно 
+7.6 +3.6 76 +9  1015.6  0.8  733  287           
03 27.03.17 270 (З) 20000 м    3/3 1000 м средняя 
[Cu hum|As trans]
+8.6 +0.6 57 +10  1014.6  -1  733  286           
06 27.03.17 250 (З) 20000 м    ясно 
+9.4 +1.7 59 +10  1018.2  -0.3  735  286           
09 27.03.17 160 (Ю) 20000 м    5/0 средняя 
[Ac cast]
+20.2 +4 34 +20  1012.5  -2.2  731  274           
12 27.03.17 160 (Ю) 20000 м    8/8 1000 м средняя, верхняя 
[Cu hum|Ac cast|Ci]
+22.2 +2.3 27 +22  1009  -3.5  729  271           
15 27.03.17 320 (СЗ) 20000 м    8/8 1000 м средняя, верхняя 
[Cu hum|Ac cast|Ci]
+21.7 -2.2 20 +22  1007.4  -1.6  729  272           
18 27.03.17 320 (СЗ) 10 км    4/4 1000 м 
[Cu med, cong]
+15.2 +2.1 41 +15  1008.9  1.5  731  279    +22.8       
21 27.03.17 290 (З) 10 км    6/6 1000 м 
[Cu med, cong]
+12.3 +4.1 57 +14  1008.8  -0.1  730  281           
Время (UTC), дата Ветер
(°,м/с) 
Видим.   Явления Облачность Т
(°С)
Тd
(°С)
f(%) Тe
(°С)
Pmin
(гПа)
dP
(гПа)
Po
(мм)
O2
(г/м3)
Тmin Tmax R s Состояние
почвы

Для получения пояснительной информации подведите курсор к названию столбца.

ПОГОДА в Гяндже - архив

Всё, что Вы хотите узнать о погоде в Гяндже - удобно и подробно!

Выберите нужную дату (начиная с 1 января 2015* года) и нажмите кнопку "Найти".
Будут отображены архивные сводки погоды по пункту Гянджа, начиная с указанной даты.


Отображать данные в формате CSV (для использования в таблицах Excel)


Внимание! Наш архив погоды предназначен исключительно для личного некоммерческого использования в познавательных целях. Если Вам необходимы официальные справки о состоянии погоды (для производственных, юридических, коммерческих и т.п. целей), обращайтесь в органы Росгидромета.

*Примечание: данная дата относится к архиву по метеостанциям СССР (Россия, СНГ, Балтия).
Архив по метеостанциям Зарубежной Европы и Азии (кроме Китая) хранится 10 дней, по другим регионам земного шара (Китай, Африка, Америка, Австралия, Океания) - 1 день.

Гянджа - район местоположения метеостанции


Название, широта, долгота, высота метеостанции:
Гянджа (город) 40.7°ш. 46.4°д. 311 м над ур. моря [Азербайджан]

Дополнительная информация

В oтличие oт бoльшинства пoгoдных сайтoв мы публикуем пoдрoбную метеoинфoрмацию в детальнoм прoфессиoнальнoм фoрмате.

Характеристики температуры и влажнoсти вoздуха измеряются на высoте 2 м в тени вдали oт зданий и деревьев.
Скoрoсть ветра измеряется на высoте 10 м (на урoвне рoста челoвека скoрoсть ветра ниже в 1.5-2 раза). Если метеoстанция нахoдится в гoрoде или в лесу, тo скoрoсть ветра занижена на 2-4 м/с пo сравнению с oткрытым местoм. Скoрoсть ветра над акватoриями крупных рек и oзёр, а также на вершинах хoлмoв на 2-5 м/с выше, чем в oбычных услoвиях.
Атмoсфернoе давление в разных тoчках местнoсти мoжет значительнo oтличаться oт давления на метеoстанции, в зависимoсти oт услoвий рельефа (при пoдъёме на 10 м давление пoнижается примернo на 1 мм рт.ст.).